Weather Roundup
Issued by NWS

Home | Current Version | Previous Version | Text Only | Print | Product List | Glossary On
Versions: 1 2 3 4 5 6 7 8 9 10 11 12 13 14 15 16 17 18 19 20 21 22 23 24 25 26 27 28 29 30 31 32 33 34 35 36 37 38 39 40 41 42 43 44 45 46 47 48 49 50
000
NZUS93 KARX 281859
HRRWXR

CURRENT HOURLY OBSERVATIONS ACROSS
MUCH OF THE UPPER MISSISSIPPI VALLEY
NATIONAL WEATHER SERVICE LA CROSSE WI
200 PM CDT FRI AUG 28 2015


...SOUTHEAST MINNESOTA...


CITY           SKY/WX    TMP DP  RH WIND       PRES   REMARKS
ROCHESTER      LGT RAIN  60  58  92 SE10      30.06R FOG
ROCHESTER/MAYO CLOUDY    60  61 100 SE13G18   30.05R
WINONA         RAIN      63  61  94 SE6       30.03S
AUSTIN         CLOUDY    61  59  94 S7        30.04R
ALBERT LEA     RAIN      61  61 100 SE12G17   30.03R
DODGE CENTER   HVY RAIN  61  59  94 SE8       30.05R
PRESTON        HVY RAIN  58  56  92 CALM      30.06R
OWATONNA       LGT RAIN  64  61  88 SE20G26   30.01S
FARIBAULT      DRIZZLE   70  64  83 SE15      30.01R
$$

...ELSEWHERE IN MINNESOTA...


CITY           SKY/WX    TMP DP  RH WIND       PRES   REMARKS
MINNEAPOLIS    PTSUNNY   74  64  71 SE10      30.00F
INTNL FALLS    CLOUDY    75  69  81 S6        29.85F
DULUTH         MOSUNNY   74  64  71 SW13      29.98F
RED WING       CLOUDY    70  64  83 SE8       30.00R
REDWOOD FALLS  PTSUNNY   75  62  64 SE18G25   29.97F
MANKATO        CLOUDY    70  61  73 SE20      29.99S
WORTHINGTON    CLOUDY    66  59  77 E21G31    29.94F
FAIRMONT       PTSUNNY   63  55  77 E20       29.98S
$$

...SOUTHWEST WISCONSIN...


CITY           SKY/WX    TMP DP  RH WIND       PRES   REMARKS
LA CROSSE      LGT RAIN  64  61  90 E12       30.02F FOG
PRAIRIE DU CHI RAIN      63  60  90 CALM      30.08R
BOSCOBEL       LGT RAIN  65  63  93 VRB3      30.09F FOG
LONE ROCK      NOT AVBL
PLATTEVILLE    CLOUDY    64  63  94 E5        30.11R
FORT MC COY    RAIN      64  62  93 SE3       30.10S
VIROQUA        CLOUDY    62  62 100 E5        30.09F
WIS DELLS      RAIN      65  59  82 SW5       30.12S
$$

...ELSEWHERE IN WISCONSIN...


CITY           SKY/WX    TMP DP  RH WIND       PRES   REMARKS
MILWAUKEE      CLOUDY    73  60  63 SW5       30.11F
MADISON        LGT RAIN  66  60  81 SE5       30.11F
GREEN BAY      CLOUDY    69  61  75 SW8       30.09F
EAU CLAIRE     NOT AVBL
BLACK RVR FLS  RAIN      65  65 100 S5        30.08F
MEDFORD        CLOUDY    63  61  93 CALM      30.09S
WAUSAU         CLOUDY    67  61  81 SW8       30.08S
WIS RAPIDS     LGT RAIN  65  61  87 S6        30.12S
MARSHFIELD     LGT RAIN  65  61  87 SW9       30.10S
RICE LAKE      CLOUDY    70  63  77 S8        30.05F
$$

...NORTHEAST IOWA...


CITY           SKY/WX    TMP DP  RH WIND       PRES   REMARKS
DECORAH        CLOUDY    59  57  94 E21G28    29.98F
MASON CITY     RAIN      59  58  96 NE10      30.01F FOG
CHARLES CITY   CLOUDY    61  61 100 SE9G15    30.01S
OELWEIN        LGT RAIN  61  61 100 SE15G24   30.00F
$$

...ELSEWHERE IN IOWA...


CITY           SKY/WX    TMP DP  RH WIND       PRES   REMARKS
DES MOINES     CLOUDY    71  65  81 S14       29.87F
IOWA CITY      CLOUDY    68  62  81 SE10      30.03F
FORT DODGE     CLOUDY    61  57  88 E17       29.89F
$$

...NORTHERN ILLINOIS...


CITY           SKY/WX    TMP DP  RH WIND       PRES   REMARKS
CHICAGO-OHARE  CLOUDY    71  59  65 SW6       30.12F
CHICAGO-MIDWAY CLOUDY    74  59  59 SW7       30.12F
MOLINE         CLOUDY    70  62  76 E10       30.06F
ROCKFORD       CLOUDY    70  61  73 S7        30.13F
PEORIA         CLOUDY    76  59  55 SE8       30.09F
$$

NOTE: "FAIR" INDICATES FEW OR NO CLOUDS BELOW 12,000 FEET WITH NO
SIGNIFICANT WEATHER AND/OR OBSTRUCTIONS TO VISIBILITY. WIND
SPEEDS ARE IN MILES-PER-HOUR.



USA.gov is the U.S. government's official web portal to all federal, state and local government web resources and services.